Vlieland, Netherlands

6:35 PM CEST on April 26, 2017 (GMT +0200)
Vlieland

Weather History for EHVL - November, 2012

Change the Weather History Date:

Monday, November 5, 2012

  Actual Average Record
Temperature  
Mean Temperature 46 °F -  
Max Temperature 50 °F 46 °F 57 °F (2010)
Min Temperature 42 °F 41 °F 39 °F (1999)
Degree Days  
Heating Degree Days 19    
Moisture  
Dew Point 41 °F    
Average Humidity 82    
Maximum Humidity 93    
Minimum Humidity 62    
Precipitation  
Precipitation 0.00 in - - ()
Sea Level Pressure  
Sea Level Pressure 29.52 in    
Wind  
Wind Speed 11 mph ()    
Max Wind Speed 30 mph    
Max Gust Speed 31 mph    
Visibility 6.1 miles    
Events Rain    
Averages and records for this station are not official NWS values.
T = Trace of Precipitation, MM = Missing Value Source: Averaged Metar Reports

Daily Weather History Graph

Daily Weather History Graph

Search for Another Location

Airport or City:

Trip Planner

Search our weather history database for the weather conditions in past years. The results will help you decide how hot, cold, wet, or windy it might be!

Date:

Astronomy

Nov. 05, 2012 Rise Set
Actual Time 7:46 AM CET 5:00 PM CET
Civil Twilight 7:09 AM CET 5:37 PM CET
Nautical Twilight 6:27 AM CET 6:19 PM CET
Astronomical Twilight 5:47 AM CET 6:59 PM CET
Moon 10:20 PM CET (11/5) 1:01 PM CET (11/5)
Length of Visible Light 10h 28m
Length of Day
9h 13m
Waning Gibbous, 65% of the Moon is Illuminated
Nov 5
Waning Gibbous
Nov 7
Last Quarter
Nov 13
New
Nov 20
First Quarter
Nov 28
Full

Hourly Weather History & Observations

Time (CET) Temp. Windchill Dew Point Humidity Pressure Visibility Wind Dir Wind Speed Gust Speed Precip Events Conditions
12:25 AM 42.8 °F 41.1 °F 41.0 °F 93% 29.33 in 6.2 mi ENE 3.5 mph - N/A   Overcast
12:31 AM 42.8 °F 40.1 °F 41.0 °F 93% 29.33 in 4.3 mi ENE 4.6 mph - N/A   Heavy Drizzle
12:35 AM 42.8 °F 40.1 °F 41.0 °F 93% 29.33 in 6.2 mi ENE 4.6 mph - N/A   Drizzle
12:37 AM 42.8 °F 40.1 °F 41.0 °F 93% 29.33 in 6.2 mi ENE 4.6 mph - N/A   Mostly Cloudy
12:43 AM 42.8 °F 40.1 °F 41.0 °F 93% 29.33 in 6.2 mi ENE 4.6 mph - N/A Rain Light Rain
12:55 AM 42.8 °F 40.1 °F 41.0 °F 93% 29.33 in 6.2 mi ENE 4.6 mph - N/A Rain Light Rain
12:56 AM 42.8 °F 39.3 °F 41.0 °F 93% 29.33 in 6.2 mi ENE 5.8 mph - N/A Rain Drizzle
1:05 AM 44.6 °F 40.7 °F 41.0 °F 87% 29.33 in 6.2 mi ENE 6.9 mph - N/A Rain Light Rain
1:15 AM 44.6 °F 40.2 °F 41.0 °F 87% 29.33 in 6.2 mi ENE 8.1 mph - N/A Rain Light Rain
1:25 AM 44.6 °F 41.4 °F 41.0 °F 87% 29.33 in 6.2 mi ENE 5.8 mph - N/A   Light Drizzle
1:55 AM 42.8 °F - 41.0 °F 93% 29.33 in 6.2 mi NE 2.3 mph - N/A   Overcast
1:56 AM 42.8 °F 41.1 °F 41.0 °F 93% 29.33 in 6.2 mi NE 3.5 mph - N/A   Mostly Cloudy
2:03 AM 42.8 °F 41.1 °F 41.0 °F 93% 29.33 in 6.2 mi NE 3.5 mph - N/A   Mostly Cloudy
2:12 AM 42.8 °F - 41.0 °F 93% 29.36 in 6.2 mi NNE 2.3 mph - N/A   Mostly Cloudy
2:19 AM 42.8 °F - 41.0 °F 93% 29.36 in 6.2 mi North 2.3 mph - N/A   Mostly Cloudy
2:25 AM 42.8 °F - 41.0 °F 93% 29.36 in 6.2 mi NNE 2.3 mph - N/A   Mostly Cloudy
2:55 AM 44.6 °F 41.4 °F 42.8 °F 93% 29.36 in 6.2 mi ENE 5.8 mph - N/A   Light Drizzle
3:09 AM 44.6 °F 42.2 °F 42.8 °F 93% 29.36 in 6.2 mi NE 4.6 mph - N/A Rain Light Rain
3:13 AM 44.6 °F 42.2 °F 42.8 °F 93% 29.36 in 6.2 mi NE 4.6 mph - N/A   Mostly Cloudy
3:25 AM 44.6 °F 39.7 °F 42.8 °F 93% 29.36 in 6.2 mi NNE 9.2 mph - N/A   Overcast
3:55 AM 44.6 °F 39.2 °F 42.8 °F 93% 29.36 in 6.2 mi NE 10.4 mph - N/A   Light Drizzle
4:01 AM 44.6 °F 39.7 °F 42.8 °F 93% 29.36 in 6.2 mi NE 9.2 mph - N/A   Overcast
4:05 AM 44.6 °F 40.2 °F 42.8 °F 93% 29.36 in 6.2 mi NE 8.1 mph - N/A   Light Drizzle
4:10 AM 44.6 °F 38.8 °F 41.0 °F 87% 29.36 in - NNE 11.5 mph 26.5 mph N/A Rain Rain
4:14 AM 44.6 °F 37.4 °F 41.0 °F 87% 29.36 in 3.7 mi NNE 16.1 mph - N/A Rain Rain Showers
4:18 AM 44.6 °F 36.9 °F 42.8 °F 93% 29.39 in 5.6 mi NNE 18.4 mph - N/A Rain Rain Showers
4:25 AM 44.6 °F 38.8 °F 42.8 °F 93% 29.39 in 6.2 mi NNE 11.5 mph - N/A Rain Light Rain Showers
4:37 AM 44.6 °F 38.1 °F 42.8 °F 93% 29.39 in 6.2 mi NNE 13.8 mph - N/A Rain Light Rain
4:44 AM 44.6 °F 37.2 °F 42.8 °F 93% 29.39 in 6.2 mi NE 17.3 mph - N/A Rain Light Rain Showers
4:48 AM 44.6 °F 36.9 °F 42.8 °F 93% 29.39 in 6.2 mi NE 18.4 mph - N/A Rain Light Rain Showers
4:55 AM 44.6 °F 38.1 °F 42.8 °F 93% 29.39 in 6.2 mi NE 13.8 mph - N/A   Mostly Cloudy
5:25 AM 44.6 °F 37.4 °F 42.8 °F 93% 29.39 in 6.2 mi NNE 16.1 mph - N/A   Overcast
5:55 AM 44.6 °F 38.1 °F 42.8 °F 93% 29.42 in 6.2 mi North 13.8 mph - N/A   Overcast
6:25 AM 46.4 °F 40.1 °F 42.8 °F 87% 29.42 in 6.2 mi North 15.0 mph - N/A   Mostly Cloudy
6:29 AM 46.4 °F 39.5 °F 42.8 °F 87% 29.42 in 6.2 mi North 17.3 mph - N/A   Mostly Cloudy
6:51 AM 46.4 °F 39.0 °F 42.8 °F 87% 29.42 in 6.2 mi North 19.6 mph - N/A   Mostly Cloudy
6:55 AM 46.4 °F 39.2 °F 41.0 °F 81% 29.42 in 6.2 mi North 18.4 mph - N/A   Mostly Cloudy
7:25 AM 46.4 °F 39.5 °F 41.0 °F 81% 29.42 in 6.2 mi North 17.3 mph - N/A   Overcast
7:41 AM 46.4 °F 39.2 °F 42.8 °F 87% 29.44 in 6.2 mi North 18.4 mph - N/A   Overcast
7:45 AM 48.2 °F - 42.8 °F 82% 29.44 in 6.2 mi North 18.4 mph - N/A   Mostly Cloudy
7:49 AM 46.4 °F 39.2 °F 42.8 °F 87% 29.44 in 6.2 mi North 18.4 mph - N/A   Mostly Cloudy
7:55 AM 46.4 °F 39.5 °F 41.0 °F 81% 29.44 in 6.2 mi North 17.3 mph - N/A   Overcast
7:56 AM 46.4 °F 39.2 °F 41.0 °F 81% 29.44 in 6.2 mi North 18.4 mph - N/A   Mostly Cloudy
8:10 AM 46.4 °F 39.8 °F 41.0 °F 81% 29.44 in 6.2 mi North 16.1 mph - N/A   Mostly Cloudy
8:25 AM 48.2 °F - 41.0 °F 76% 29.44 in 6.2 mi NNW 16.1 mph - N/A   Mostly Cloudy
8:55 AM 46.4 °F 38.7 °F 41.0 °F 81% 29.47 in 6.2 mi North 20.7 mph - N/A   Mostly Cloudy
9:20 AM 44.6 °F 36.6 °F 41.0 °F 87% 29.47 in 6.2 mi NE 19.6 mph - N/A Rain Light Rain
9:25 AM 44.6 °F 37.4 °F 41.0 °F 87% 29.47 in 6.2 mi NE 16.1 mph - N/A   Mostly Cloudy
9:30 AM 44.6 °F 38.1 °F 41.0 °F 87% 29.47 in 6.2 mi NE 13.8 mph - N/A   Mostly Cloudy
9:55 AM 44.6 °F 40.2 °F 41.0 °F 87% 29.50 in 6.2 mi ENE 8.1 mph - N/A   Overcast
10:25 AM 46.4 °F - 42.8 °F 87% 29.50 in 6.2 mi ENE 2.3 mph - N/A   Mostly Cloudy
10:55 AM 48.2 °F - 39.2 °F 71% 29.50 in 6.2 mi North 21.9 mph - N/A   Mostly Cloudy
11:00 AM 46.4 °F 38.5 °F 39.2 °F 76% 29.53 in 3.7 mi North 21.9 mph - N/A   Haze
11:02 AM 46.4 °F 38.7 °F 39.2 °F 76% 29.53 in 6.2 mi North 20.7 mph - N/A Rain Light Rain
11:15 AM 48.2 °F - 41.0 °F 76% 29.53 in 6.2 mi NNW 19.6 mph - N/A   Overcast
11:25 AM 48.2 °F - 39.2 °F 71% 29.53 in 6.2 mi NNW 20.7 mph - N/A   Mostly Cloudy
11:55 AM 50.0 °F - 41.0 °F 71% 29.53 in 6.2 mi North 20.7 mph - N/A Rain Light Rain
12:25 PM 50.0 °F - 39.2 °F 66% 29.56 in 6.2 mi NNW 19.6 mph - N/A   Scattered Clouds
12:47 PM 50.0 °F - 39.2 °F 66% 29.56 in 6.2 mi NNW 19.6 mph - N/A   Scattered Clouds
12:55 PM 50.0 °F - 39.2 °F 66% 29.56 in 6.2 mi NNW 19.6 mph - N/A   Scattered Clouds
1:00 PM 50.0 °F - 39.2 °F 66% 29.56 in 6.2 mi NNW 20.7 mph - N/A   Scattered Clouds
1:25 PM 50.0 °F - 39.2 °F 66% 29.56 in 6.2 mi NNW 20.7 mph - N/A   Unknown
1:55 PM 50.0 °F - 39.2 °F 66% 29.59 in 6.2 mi NNW 16.1 mph - N/A   Mostly Cloudy
2:25 PM 50.0 °F - 37.4 °F 62% 29.59 in 6.2 mi NW 17.3 mph - N/A   Mostly Cloudy
2:55 PM 50.0 °F - 37.4 °F 62% 29.59 in 6.2 mi NNW 15.0 mph - N/A   Partly Cloudy
3:25 PM 48.2 °F - 37.4 °F 66% 29.59 in 6.2 mi NW 16.1 mph - N/A   Scattered Clouds
3:55 PM 48.2 °F - 37.4 °F 66% 29.62 in 6.2 mi NNW 15.0 mph - N/A   Scattered Clouds
4:25 PM 48.2 °F - 37.4 °F 66% 29.62 in 6.2 mi NNW 17.3 mph - N/A   Scattered Clouds
4:55 PM 48.2 °F - 39.2 °F 71% 29.62 in 6.2 mi NNW 19.6 mph - N/A   Scattered Clouds
5:25 PM 48.2 °F - 39.2 °F 71% 29.65 in 6.2 mi NNW 18.4 mph - N/A   Partly Cloudy
5:55 PM 46.4 °F 39.5 °F 39.2 °F 76% 29.65 in 6.2 mi NW 17.3 mph - N/A   Unknown
6:18 PM 46.4 °F 38.7 °F 39.2 °F 76% 29.65 in 4.3 mi NNW 20.7 mph - N/A Rain Light Rain
6:25 PM 46.4 °F 39.0 °F 39.2 °F 76% 29.68 in 6.2 mi NNW 19.6 mph 31.1 mph N/A Rain Light Rain
6:35 PM 46.4 °F 41.5 °F 39.2 °F 76% 29.68 in 6.2 mi North 10.4 mph - N/A   Mostly Cloudy
6:55 PM 46.4 °F 41.5 °F 39.2 °F 76% 29.68 in 6.2 mi NNW 10.4 mph - N/A   Mostly Cloudy
7:03 PM 46.4 °F 39.8 °F 39.2 °F 76% 29.68 in 3.7 mi NNW 16.1 mph - N/A   Haze
7:04 PM 46.4 °F 39.8 °F 39.2 °F 76% 29.68 in 6.2 mi North 16.1 mph - N/A Rain Rain
7:20 PM 46.4 °F 39.0 °F 41.0 °F 81% 29.68 in 6.2 mi WNW 19.6 mph - N/A   Mostly Cloudy
7:25 PM 46.4 °F 39.2 °F 41.0 °F 81% 29.68 in 6.2 mi WNW 18.4 mph - N/A   Mostly Cloudy
7:55 PM 46.4 °F 39.0 °F 39.2 °F 76% 29.71 in 6.2 mi NNW 19.6 mph - N/A   Partly Cloudy
8:00 PM 46.4 °F 39.0 °F 39.2 °F 76% 29.71 in 6.2 mi NNW 19.6 mph - N/A   Scattered Clouds
8:25 PM 48.2 °F - 41.0 °F 76% 29.71 in 6.2 mi NNW 29.9 mph - N/A   Mostly Cloudy
8:35 PM 46.4 °F 39.0 °F 41.0 °F 81% 29.71 in 6.2 mi NNW 19.6 mph - N/A   Mostly Cloudy
8:45 PM 46.4 °F 39.0 °F 41.0 °F 81% 29.71 in 6.2 mi NNW 19.6 mph - N/A   Scattered Clouds
8:55 PM 46.4 °F 39.0 °F 41.0 °F 81% 29.71 in 6.2 mi NNW 19.6 mph - N/A   Partly Cloudy
9:07 PM 46.4 °F 38.7 °F 41.0 °F 81% 29.74 in 6.2 mi NW 20.7 mph - N/A   Light Drizzle
9:25 PM 48.2 °F - 39.2 °F 71% 29.74 in 6.2 mi NW 19.6 mph - N/A   Partly Cloudy
9:55 PM 48.2 °F - 39.2 °F 71% 29.74 in 6.2 mi NNW 19.6 mph - N/A   Partly Cloudy
10:25 PM 48.2 °F - 39.2 °F 71% 29.77 in 6.2 mi NNW 20.7 mph - N/A   Overcast
10:33 PM 46.4 °F 38.5 °F 39.2 °F 76% 29.77 in 6.2 mi NNW 21.9 mph - N/A   Overcast
10:43 PM 44.6 °F 35.5 °F 39.2 °F 81% 29.77 in 6.2 mi North 25.3 mph - N/A Rain Light Rain
10:47 PM 44.6 °F 35.9 °F 39.2 °F 81% 29.77 in 6.2 mi North 23.0 mph - N/A Rain Light Rain
10:55 PM 46.4 °F 38.5 °F 39.2 °F 76% 29.77 in 6.2 mi North 21.9 mph - N/A   Drizzle
11:00 PM 46.4 °F 37.9 °F 39.2 °F 76% 29.77 in 4.3 mi NNW 25.3 mph - N/A   Haze
11:07 PM 46.4 °F 38.3 °F 41.0 °F 81% 29.77 in 6.2 mi North 23.0 mph - N/A Rain Light Rain
11:12 PM 46.4 °F 38.3 °F 39.2 °F 76% 29.77 in 6.2 mi North 23.0 mph - N/A Rain Light Rain
11:25 PM 46.4 °F 37.9 °F 39.2 °F 76% 29.77 in 6.2 mi North 25.3 mph - N/A Rain Light Rain
11:42 PM 46.4 °F 38.1 °F 39.2 °F 76% 29.80 in 6.2 mi North 24.2 mph - N/A   Scattered Clouds
11:55 PM 46.4 °F 38.5 °F 39.2 °F 76% 29.80 in 6.2 mi North 21.9 mph - N/A   Scattered Clouds